Regional Weather Roundup
Issued by NWS

Home | Current Version | Previous Version | Graphics & Text | Print | Product List | Glossary On
Versions: 1 2 3 4 5 6 7 8 9 10 11 12 13 14 15 16 17 18 19 20 21 22 23 24 25 26 27 28 29 30 31 32 33 34 35 36 37 38 39 40 41 42 43 44 45 46 47 48 49 50
198
ASUS43 KIND 240909
RWRIN

WEATHER ROUNDUP FOR INDIANA
NATIONAL WEATHER SERVICE INDIANAPOLIS IN
500 AM EDT TUE MAY 24 2016

NOTE: "FAIR" INDICATES FEW OR NO CLOUDS BELOW 12,000 FEET WITH NO
SIGNIFICANT WEATHER AND/OR OBSTRUCTIONS TO VISIBILITY.

* - STATION DOES NOT REPORT WEATHER SUCH AS PRECIPITATION OR FOG.

+ - STATION NOT QUALITY CONTROLLED BY THE NATIONAL WEATHER SERVICE.
    USE DATA WITH CAUTION...ESPECIALLY DEWPOINT AND RELATIVE
    HUMIDITY OBSERVATIONS.

INZ001>003-010>013-019-020-241000-
NORTHWEST INDIANA

CITY           SKY/WX    TMP DP  RH WIND       PRES   REMARKS
GARY /AIRPORT/ CLOUDY    63  50  63 S5        29.98S
KNOX *+        CLEAR     55  32  41 CALM      30.00R
LA PORTE +     CLEAR     57  41  56 CALM      30.00S
MICHIGAN CITY+ CLEAR     61  39  44 S7        29.99R
MONTICELLO +   CLEAR     56  38  51 S3        30.01R
RENSSELAER +   CLOUDY    59  41  51 S6        30.00S
VALPARAISO     CLEAR     59  40  49 CALM      30.00R

$$

LMZ046-743>745-241000-
SOUTHERN LAKE MICHIGAN

STATION/POSITION TIME  TEMP    WIND        PRES    WAVE
                       AIR SEA DIR/SP/G            HT
                 (UTC) (F)     (DEG/KT/KT) (MB)    (FT)
BURNS HARBOR     0800   64     190/  9/ 14 1015.2S
MICHIGAN CITY    0800   66     160/ 13/ 15   N/A
5NW MICH CITY    0900   60 56  190/  6/  8   N/A     1

$$

INZ004-005-014>016-021>024-241000-
NORTH CENTRAL INDIANA

CITY           SKY/WX    TMP DP  RH WIND       PRES   REMARKS
GOSHEN         CLEAR     47  40  76 CALM      30.01R
LOGANSPORT +   CLEAR     54  41  62 CALM      30.03R
PERU/GRISSOM   CLEAR     53  41  65 S6        30.01R
ROCHESTER +    CLEAR     61  41  48 CALM      30.02R
SOUTH BEND     CLEAR     57  37  47 S3        30.01R
WARSAW +       CLEAR     48  41  76 CALM      30.02R

$$

INZ006>009-017-018-025>027-241000-
NORTHEAST INDIANA

CITY           SKY/WX    TMP DP  RH WIND       PRES   REMARKS
ANGOLA *+      CLEAR     46  46 100 CALM      30.02R
AUBURN +       CLEAR     46  43  87 CALM      30.03R
FORT WAYNE     PTCLDY    53  43  68 SW5       30.03R
HUNTINGTON +   CLEAR     50  44  81 CALM      30.02R

$$

INZ028-029-035-036-043>045-051>053-241000-
WEST CENTRAL INDIANA

CITY           SKY/WX    TMP DP  RH WIND       PRES   REMARKS
CRAWFORDSVL +  CLEAR     52  45  77 CALM      30.03S
GREENCASTLE +  CLEAR     50  46  87 CALM      30.04S
LAFAYETTE      CLOUDY    52  44  74 CALM      30.02R
TERRE HAUTE    CLEAR     53  47  79 CALM      30.03R

$$

INZ030>032-037>040-046>048-054>057-064-065-241000-
CENTRAL INDIANA

CITY           SKY/WX    TMP DP  RH WIND       PRES   REMARKS
CP ATTERBURY + CLEAR     45  43  93 CALM      30.06R
FISHERS *+     CLEAR     48  46  93 CALM      30.05R
FRANKFORT +      N/A     53  36  53 CALM      30.05R
GREENWOOD *+   CLEAR     52  46  82 CALM      30.05R
INDIANAPOLIS   PTCLDY    56  43  61 W5        30.03R
-EAGLE CREEK   CLEAR     53  45  74 CALM      30.04R
KOKOMO *+      CLEAR     52  39  62 S3        30.03R
MARION +       CLEAR     53  45  74 CALM      30.04R
SHELBYVILLE    CLEAR     53  47  79 CALM      30.04R
ZIONSVILLE +   CLEAR     51  43  74 CALM      30.05R

$$

INZ033-034-041-042-049-050-058-059-241000-
EAST CENTRAL INDIANA

CITY           SKY/WX    TMP DP  RH WIND       PRES   REMARKS
MUNCIE         CLEAR     58  47  66 SW3       30.04R

$$

INZ060-061-067>069-081>083-085>088-241000-
SOUTHWEST INDIANA

CITY           SKY/WX    TMP DP  RH WIND       PRES   REMARKS
EVANSVILLE     CLEAR     56  50  80 CALM      30.04R
HUNTINGBURG *+ CLEAR     54  45  71 SE5       30.04R
WASHINGTON +   CLEAR     56  50  79 E3        30.03R

$$

INZ062-063-066-070>080-084-089>092-241000-
SOUTH CENTRAL AND SOUTHEAST INDIANA

CITY           SKY/WX    TMP DP  RH WIND       PRES   REMARKS
BEDFORD +      CLEAR     50  50 100 CALM      30.05
BLOOMINGTON    CLOUDY    50  46  86 CALM      30.04R
MADISON *+     CLEAR     52  48  87 CALM      30.07R
NORTH VERNON + CLEAR    N/A N/A N/A CALM      30.06
SEYMOUR +      CLEAR     52  50  93 CALM      30.06R

$$





USA.gov is the U.S. government's official web portal to all federal, state and local government web resources and services.